www.pogodaiklimat.ru

Погода и климат >> Архив погоды >> Германия >> Frankfurt


АРХИВ ПОГОДЫ в Frankfurt

Время (UTC), дата Ветер
(напр.,м/с)
 
Видим.   Явления Облачность Т
(С)
Тd
(С)
f
(%)
Тe
(С)
Тes
(С)
Комфортность P
(гПа)
Po
(гПа)
Тmin
(С)
Tmax
(С)
R
(мм)
R24
(мм)
S
(см)
01 10.12 Ю 7-9
{10}
40 км 9/8 600 м
[Sc Ac As]
+0.5 -3.8 73 -6 -6 по сезону 1010.8 997.8
02 10.12 Ю 6-8
{10}
40 км 9/9 600 м
[Sc]
+0.3 -3.8 74 -6 -6 по сезону 1009.5 996.5
03 10.12 Ю 5-8
{10}
40 км 9/9 660 м
[Sc]
+0.4 -3.7 74 -5 -5 прохладно 1008.3 995.3
04 10.12 Ю 6-10
{10}
40 км 9/4 600 м
[Sc Ac As]
-0.1 -3.9 76 -7 -7 по сезону 1006.8 993.8
05 10.12 Ю 6-9
{10}
40 км 9/6 500 м
[Sc Ac As]
-0.2 -3.8 77 -7 -7 по сезону 1005.7 992.7
06 10.12 Ю 5 40 км 10/10 450 м
[Sc]
-0.2 -4.0 76 -6 -6 прохладно 1003.9 990.9 -0.3 +1.1
07 10.12 Ю 5-10
{13}
45 км 9/9 450 м
[Sc]
-0.4 -3.9 77 -6 -6 по сезону 1001.5 988.6
08 10.12 Ю 5-11
{12}
45 км 9/6 360 м
[Cu Sc Ac As Ci sp]
-0.9 -4.0 79 -7 -7 прохладно 999.9 987.0
09 10.12 Ю 2 45 км в посл. час снег 10/8 450 м
[Cu Sc Ci sp]
+0.1 -4.0 74 -3 -3 прохладно 997.5 984.6 0.0
10 10.12 ЮВ 2-4
{5}
45 км слабый снег 10/4 720 м
[Sc As op]
+0.9 -4.1 69 -2 -2 по сезону 994.4 981.6
11 10.12 ЮВ 3-6
{6}
800 м сильный снег ?/? -0.6 -1.7 92 -6 -6 прохладно 990.7 977.9
12 10.12 ЮВ 3-6
{13}
1300 м снег 10/10 150 м
[Frnb]
-1.2 -2.4 92 -6 -6 холодно 988.1 975.3 2 2
13 10.12 ЮВ 2-4
{6}
800 м сильный снег ?/? -1.2 -2.1 94 -5 -5 по сезону 985.6 972.8
14 10.12 Ю 1-2
{2}
2800 м слабый снег туман 10/10 150 м
[Sc]
-1.1 -2.1 93 -3 -3 по сезону 984.8 972.1
15 10.12 ЮЗ 1-3
{6}
16 км в посл. час снег 10/10 120 м
[Frnb]
-0.2 -1.4 92 -2 -2 по сезону 984.5 971.8 3
16 10.12 ЮЗ 4-5
{6}
20 км в посл. час снег 10/10 180 м
[St]
+0.4 -0.7 92 -5 -5 по сезону 984.6 971.9
17 10.12 ЮЗ 3-6
{7}
16 км 9/9 180 м
[St]
+0.7 -0.2 94 -4 -4 по сезону 984.1 971.4
18 10.12 ЮЗ 3 20 км {снег} 9/4 180 м
[Sc Ac trans]
+2.1 +0.9 92 -2 -2 по сезону 983.6 971.0 -1.2 +2.1 0.0 5
19 10.12 Ю 8-13
{15}
30 км 10/3 750 м
[Sc Ac As]
+3.8 +2.2 89 -3 -3 тепло 983.7 971.2
20 10.12 Ю 4-6
{12}
40 км 9/5 900 м
[Cu Sc Ac As]
+4.3 +2.6 89 -0 -0 по сезону 983.3 970.8
21 10.12 Ю 6-9
{15}
20 км в посл. час дождь 10/9 870 м
[Cu Sc]
+4.7 +2.5 86 -1 -1 по сезону 982.7 970.3 0.0
22 10.12 Ю 9-12
{13}
20 км слабый ливневой дождь 10/9 600 м
[Cb cap]
+6.2 +3.0 80 +1 +1 тепло 982.4 970.0
23 10.12 ЮЗ 5-6
{15}
40 км в посл. час ливневой дождь 9/9 300 м
[Cb cap]
+4.6 +3.3 91 -0 -0 тепло 984.5 972.0
00 11.12 Ю 5 50 км в посл. час дождь {ливн. осадки} 10/4 870 м
[Cu Sc Ac As]
+4.9 +3.7 92 0 0 по сезону 984.9 972.4 2 1
01 11.12 ЮЗ 5-7
{8}
55 км 10/9 900 м
[Cu Sc]
+5.9 +4.0 88 +1 +1 тепло 985.9 973.5
02 11.12 Ю 4-6
{6}
55 км слабый дождь 10/9 870 м
[Cu Sc]
+5.6 +3.9 89 +2 +2 тепло 985.7 973.3
03 11.12 Ю 3-4
{8}
55 км слабый дождь {ливн. осадки} 9/9 270 м
[Cu Sc]
+5.6 +3.9 89 +2 +2 по сезону 986.3 973.9 0.1
04 11.12 ЮЗ 2-4
{4}
55 км в посл. час дождь 9/9 900 м
[Cu Sc]
+4.5 +3.6 94 +2 +2 тепло 986.3 973.8
05 11.12 В 1-2
{4}
35 км в посл. час дождь туман 8/4 150 м
[Cu Sc Ac As Ci fib]
+3.8 +3.1 95 +2 +2 тепло 985.1 972.6
06 11.12 В 2 25 км {ливн. осадки, дождь} 10/9 100 м
[Sc]
+4.2 +3.6 96 +1 +1 по сезону 984.2 971.7 +2.2 +6.4 0.0
07 11.12 В 1-3
{6}
20 км слабый дождь 10/9 150 м
[Sc]
+4.2 +3.5 95 +3 +3 тепло 984.1 971.6
08 11.12 В 2-3
{4}
10 км слабый дождь 10/6 270 м
[Sc As op]
+5.4 +4.9 97 +3 +3 тепло 983.5 971.1
09 11.12 В 2 10 км дождь 10/8 240 м
[Sc As op]
+6.4 +5.3 93 +4 +4 тепло 983.1 970.7 3
10 11.12 В 3-5
{5}
8000 м дождь 10/5 240 м
[Sc As op]
+6.4 +5.4 93 +3 +3 тепло 981.8 969.4
11 11.12 ЮВ 2-6
{7}
8000 м дождь 10/8 180 м
[Sc As op]
+6.8 +6.0 95 +4 +4 тепло 980.5 968.2
12 11.12 ЮВ 2 9000 м дождь 10/8 180 м
[Sc As op]
+7.6 +6.7 94 +5 +5 тепло 979.4 967.1 9
13 11.12 ЮЗ 4-8
{8}
6000 м сильный дождь 10/9 90 м
[Sc]
+7.7 +6.9 95 +4 +4 тепло 981.3 969.0
14 11.12 Ю 6-10
{12}
45 км в посл. час дождь 10/9 180 м
[Sc]
+8.2 +6.1 87 +4 +4 тепло 980.9 968.6
15 11.12 Ю 4-10
{12}
50 км в посл. час дождь 9/9 240 м
[Sc]
+8.3 +5.8 84 +5 +5 тепло 981.2 968.9 2
16 11.12 ЮЗ 4-7
{8}
60 км 9/1 400 м
[Sc Ac As]
+8.8 +4.7 75 +6 +6 тепло 981.6 969.4
17 11.12 Ю 7-10
{14}
60 км 9/4 540 м
[Sc Ac trans]
+8.4 +4.7 78 +4 +4 тепло 981.8 969.5
18 11.12 Ю 9 60 км {дождь} 9/4 540 м
[Sc Ac As]
+8.7 +4.2 73 +4 +4 тепло 982.8 970.5 +4.1 +8.9 0.1
19 11.12 Ю 8-17
{20}
60 км 9/4 2000 м
[Sc Ac As]
+8.6 +3.8 72 +4 +4 тепло 983.3 971.0
20 11.12 Ю 9-12
{16}
60 км 10/3 1440 м
[Sc Ac As]
+8.4 +3.6 72 +4 +4 тепло 983.6 971.3
21 11.12 Ю 9-12
{20}
60 км 9/3 1350 м
[Sc Ac As]
+8.3 +3.4 71 +4 +4 тепло 984.3 972.0
22 11.12 Ю 11-17
{17}
15 км слабый дождь 10/10 750 м
[Sc]
+7.4 +4.6 82 +2 +2 тепло 985.8 973.4
23 11.12 Ю 8-12
{18}
60 км в посл. час дождь 10/10 1050 м
[Sc]
+7.0 +3.3 77 +2 +2 тепло 986.9 974.5
00 12.12 ЮЗ 8 60 км {дождь} 10/10 870 м
[Sc]
+7.1 +2.5 73 +2 +2 по сезону 988.0 975.6 0.5
01 12.12 ЮЗ 8-12
{13}
60 км 9/9 930 м
[Sc]
+6.6 +1.3 69 +2 +2 тепло 989.5 977.0
02 12.12 ЮЗ 11-18
{18}
60 км в посл. час дождь 10/10 720 м
[Sc]
+6.3 +0.9 68 0 0 тепло 991.4 978.9
03 12.12 ЮЗ 10 60 км в посл. час дождь 10/10 700 м
[Sc]
+4.0 -0.8 71 -3 -3 по сезону 993.7 981.1 0.0
04 12.12 ЮЗ 10-13
{17}
35 км слабый дождь 10/10 360 м
[Sc]
+3.3 -1.3 72 -4 -4 по сезону 996.6 983.9
05 12.12 -12
{13}
25 км слабый дождь со снегом 10/10 720 м
[Sc]
+3.0 -1.0 75 998.9 986.2
06 12.12 ЮЗ 8 35 км слабый дождь со снегом 10/10 600 м
[Sc]
+3.6 -1.3 70 -2 -2 по сезону 1001.4 988.7 +2.8 +8.8 0.0
07 12.12 ЮЗ 9-12
{13}
35 км в посл. час дождь со снегом 9/8 600 м
[Cu Sc Ac As]
+3.8 -1.5 68 -3 -3 тепло 1003.4 990.6
08 12.12 ЮЗ 7-9
{13}
40 км 5/4 600 м
[Cu Sc Ac trans Ci sp]
+3.5 -1.9 68 -2 -2 по сезону 1005.7 992.9
09 12.12 ЮЗ 9 40 км {снег} 4/1 600 м
[Cu Sc Ac As Ci sp]
+3.9 -1.8 66 -2 -2 по сезону 1006.9 994.1 0.0
10 12.12 ЮЗ 7-9
{12}
40 км 5/1 660 м
[Cu Sc Ac As Ci sp]
+4.6 -1.5 65 -1 -0 тепло 1008.3 995.5
11 12.12 ЮЗ 8-11
{12}
40 км осадки на расстоянии 8/6 720 м
[Cu Sc Ac As Ci sp]
+4.7 -1.5 64 -1 -1 по сезону 1009.1 996.3
12 12.12 ЮЗ 8 40 км в посл. час ливневой дождь {снег} 9/8 720 м
[Cu Sc Ac As Ci sp]
+4.8 -0.9 67 -1 -1 по сезону 1009.6 996.8 0.0
13 12.12 ЮЗ 8-10
{13}
40 км осадки на расстоянии 9/9 600 м
[Cu Sc]
+4.8 -0.2 70 -1 -1 тепло 1010.4 997.6
14 12.12 ЮЗ 7-9
{10}
40 км осадки на расстоянии 9/9 600 м
[Cu Sc]
+4.7 -0.4 69 -1 -1 по сезону 1010.8 998.0
15 12.12 ЮЗ 6 40 км слабый ливневой дождь со снегом 9/9 600 м
[Cb cap]
+4.8 -1.1 66 0 0 по сезону 1012.0 999.2 0.0
16 12.12 ЮЗ 8-12
{13}
40 км в посл. час ливневой снег 8/8 660 м
[Cu Sc Ac trans Ci sp]
+4.1 -1.2 68 -2 -2 тепло 1013.4 1000.5
17 12.12 ЮЗ 6-8
{10}
45 км 8/8 660 м
[Cu Sc]
+3.0 -1.2 74 -3 -3 по сезону 1014.2 1001.3
18 12.12 ЮЗ 5 50 км {ливн. осадки} 8/8 660 м
[Cu Sc]
+3.1 -2.0 69 -2 -2 по сезону 1015.0 1002.1 +2.4 +4.9 0.0
19 12.12 ЮЗ 4-7
{8}
50 км 8/8 1500 м
[Sc]
+2.2 -2.3 72 -2 -2 тепло 1015.9 1002.9
20 12.12 ЮЗ 4-7
{8}
50 км 8/8 1500 м
[Sc]
+2.2 -2.3 72 -2 -2 по сезону 1015.9 1002.9
21 12.12 ЮЗ 4-6
{8}
50 км 3/3 1260 м
[Sc]
+0.9 -2.5 78 -4 -4 прохладно 1017.1 1004.0
22 12.12 Ю 4-8
{9}
50 км 3/3 1350 м
[Sc]
+0.6 -2.0 83 -5 -5 по сезону 1017.6 1004.5
23 12.12 Ю 2-4
{7}
40 км 3/3 1500 м
[Sc]
-0.4 -2.2 88 -4 -4 по сезону 1017.8 1004.7
00 13.12 Ю 3-5
{9}
40 км 8/8 720 м
[Sc]
+0.4 -1.4 88 -4 -4 по сезону 1017.8 1004.7
01 13.12 ЮЗ 3-4
{5}
40 км 9/9 700 м
[Sc]
+0.4 -1.3 88 -4 -4 тепло 1017.6 1004.5
02 13.12 ЮЗ 4-5
{6}
40 км 9/9 500 м
[Sc]
+0.9 -0.9 88 -4 -4 по сезону 1017.6 1004.5
03 13.12 Ю 4-6
{6}
40 км 3/3 800 м
[Sc]
+0.6 -0.8 90 -5 -5 прохладно 1017.2 1004.1
04 13.12 Ю 4-6
{7}
40 км 6/6 750 м
[Sc]
+1.3 -0.6 87 -4 -4 тепло 1016.3 1003.3
05 13.12 Ю 5-11
{11}
40 км 9/9 500 м
[Sc]
+1.6 -0.7 85 -4 -4 по сезону 1016.0 1003.0
06 13.12 Ю 5 35 км 9/9 570 м
[Sc]
+1.7 -0.9 83 -4 -4 по сезону 1015.6 1002.6 -0.6 +3.1
07 13.12 Ю 5-9
{12}
35 км 5/5 800 м
[Sc Ac trans Ci fib]
+1.1 -1.3 84 -5 -5 по сезону 1015.1 1002.1
08 13.12 Ю 6-9
{11}
35 км 9/9 800 м
[Cu Sc]
+1.6 -1.3 81 -5 -5 по сезону 1014.2 1001.2
09 13.12 Ю 6 35 км 8/4 800 м
[Cu Sc Ac trans Ci fib]
+2.4 -1.2 77 -3 -3 по сезону 1013.0 1000.1
10 13.12 Ю 7-11
{12}
40 км 9/1 600 м
[Cu Sc Ac As Cs]
+3.3 -1.7 70 -3 -2 по сезону 1011.9 999.0
11 13.12 Ю 10-13
{14}
40 км 9/4 750 м
[Cu Sc Ac As]
+4.1 -1.3 68 -2 -2 по сезону 1010.3 997.5
12 13.12 Ю 8 30 км осадки на расстоянии 10/4 540 м
[Cu Sc As op]
+4.6 -1.2 66 -1 -1 по сезону 1008.5 995.7
13 13.12 Ю 8-14
{14}
15 км дождь со снегом 10/4 270 м
[Frnb As op]
+3.7 -0.4 75 -2 -2 тепло 1007.1 994.3
14 13.12 Ю 8-13
{14}
11 км слабый дождь {снег} 10/5 150 м
[Frnb As op]
+2.7 +0.8 87 -4 -4 по сезону 1005.8 993.0
15 13.12 Ю 7 12 км слабый дождь 10/4 180 м
[Frnb As op]
+2.3 +0.8 90 -4 -4 прохладно 1005.0 992.2 3
16 13.12 Ю 6-10
{11}
13 км слабый дождь 10/9 150 м
[Frnb]
+1.8 +0.7 92 -4 -4 по сезону 1004.3 991.4
17 13.12 Ю 8-14
{14}
20 км слабый дождь 10/6 120 м
[Frnb As op]
+2.2 +1.1 92 -5 -5 по сезону 1003.1 990.3
18 13.12 Ю 7 25 км слабый дождь {снег} 10/8 120 м
[Sc As op]
+2.5 +1.3 92 -4 -4 прохладно 1001.9 989.1 +1.0 +4.6 2
19 13.12 Ю 7-10
{14}
25 км слабый дождь 10/4 150 м
[Frnb As op]
+3.0 +1.6 91 -3 -3 тепло 1000.0 987.3
20 13.12 Ю 8-12
{14}
30 км в посл. час дождь 10/10 150 м
[Sc]
+3.9 +2.3 89 -2 -2 по сезону 998.4 985.7
21 13.12 Ю 8 30 км слабый дождь 10/8 150 м
[Sc As op]
+4.4 +2.8 89 -2 -2 по сезону 996.2 983.6 0.0
22 13.12 Ю 8-13
{13}
8000 м дождь 10/8 150 м
[Sc As op]
+4.6 +3.4 92 -2 -2 тепло 994.4 981.8
23 13.12 ЮЗ 9-13
{14}
25 км слабый дождь 10/8 150 м
[Sc As op]
+5.0 +3.5 90 -1 -1 по сезону 993.6 981.0
00 14.12 Ю 6 25 км в посл. час дождь 10/10 150 м
[Sc]
+4.7 +3.6 93 -1 -1 по сезону 993.3 980.7 3
01 14.12 ЮЗ 5-6
{10}
40 км 6/5 180 м
[Sc Ac As]
+4.7 +3.7 93 -0 -0 тепло 993.5 980.9
02 14.12 Ю 5-7
{7}
50 км 4/3 450 м
[Cu Sc Ac trans Ci sp]
+4.6 +3.1 90 -0 -0 тепло 993.9 981.3
03 14.12 Ю 4 50 км 9/5 450 м
[Cu Sc Ac As]
+4.7 +3.0 89 0 0 по сезону 993.0 980.4
04 14.12 ЮЗ 7-13
{13}
4000 м ливневой дождь 10/10 150 м
[Cb cap]
+4.9 +3.4 90 -1 -1 тепло 993.1 980.5
05 14.12 ЮЗ 11-17
{18}
45 км слабый ливневой дождь 8/6 360 м
[Cb cap Ac trans]
+4.6 +1.2 79 -2 -2 по сезону 994.2 981.6
06 14.12 ЮЗ 11 60 км в посл. час ливневой дождь 8/6 300 м
[Cu Sc Ac As]
+4.2 -0.8 70 -3 -3 по сезону 995.6 983.0 +2.5 +5.2 1
07 14.12 ЮЗ 11-14
{20}
55 км 1/1 1320 м
[Cu Sc]
+4.6 -1.8 63 -2 -2 тепло 996.7 984.1
08 14.12 З 8-12
{17}
50 км 5/4 1200 м
[Cu Sc Ci fib]
+4.9 -1.7 62 -1 -1 по сезону 997.9 985.3
09 14.12 ЮЗ 8 50 км 8/5 1020 м
[Cu Sc Ci fib]
+5.4 -0.7 65 0 0 по сезону 998.5 985.9
10 14.12 ЮЗ 8-11
{16}
45 км 8/5 720 м
[Cu Sc Ci fib]
+6.0 +0.5 68 +1 +1 тепло 999.4 986.8
11 14.12 ЮЗ 9-13
{15}
40 км 9/9 800 м
[Cu Sc]
+6.4 +0.5 66 +1 +1 по сезону 999.0 986.4
12 14.12 ЮЗ 10 35 км осадки на расстоянии 9/8 900 м
[Cu Sc Ci fib]
+6.6 +0.2 64 +1 +1 по сезону 998.3 985.7
13 14.12 ЮЗ 11-16
{19}
35 км в посл. час ливневой дождь 9/6 800 м
[Cu Sc Ac As]
+6.5 +0.6 66 +1 +1 тепло 997.8 985.2
14 14.12 ЮЗ 9-13
{16}
25 км слабый ливневой дождь 9/9 360 м
[Cu Sc]
+5.9 +1.4 73 0 0 по сезону 997.3 984.7
15 14.12 ЮЗ 7 20 км слабый ливневой дождь 9/9 450 м
[Cu Sc]
+5.1 +2.1 81 -0 -0 по сезону 997.0 984.4 0.0
16 14.12 ЮЗ 7-10
{11}
20 км в посл. час ливневой дождь 8/8 450 м
[Cu Sc]
+4.8 +2.6 86 -1 -1 тепло 996.8 984.2
17 14.12 ЮЗ 4-8
{12}
30 км в посл. час ливневой дождь 9/9 600 м
[Sc]
+4.2 +2.8 91 -0 -0 по сезону 996.3 983.7
18 14.12 ЮЗ 4 35 км {ливн. осадки} 9/5 840 м
[Sc Ac trans]
+4.0 +2.1 87 -1 -1 по сезону 995.5 982.9 +3.7 +6.9 0.0
19 14.12 Ю 4-8
{8}
35 км 9/9 630 м
[Sc]
+4.4 +1.9 84 0 0 тепло 994.7 982.1
20 14.12 Ю 6-8
{9}
40 км в посл. час ливневой дождь 9/9 630 м
[Cu Sc]
+4.2 +0.9 79 -1 -1 по сезону 994.4 981.8
21 14.12 Ю 6 45 км {ливн. осадки} 9/9 630 м
[Cu Sc]
+4.1 +1.1 81 -1 -1 по сезону 994.4 981.8 0.0
22 14.12 Ю 4-6
{8}
16 км слабый ливневой дождь 10/10 300 м
[Cb cap]
+3.8 +1.9 87 -1 -1 тепло 993.8 981.2
23 14.12 ЮВ 2-3
{7}
15 км слабый ливневой дождь 10/10 300 м
[Cb cap]
+3.5 +2.7 94 0 0 тепло 993.2 980.6
00 15.12 Ю 4 20 км в посл. час ливневой дождь 10/10 120 м
[Cb cap]
+4.1 +2.9 92 -0 -0 по сезону 992.3 979.7 3
01 15.12 ЮЗ 5-8
{8}
6000 м ливневой дождь 10/10 120 м
[Cb cap]
+4.1 +3.2 94 -1 -1 тепло 992.4 979.8
02 15.12 ЮЗ 3 15 км слабый ливневой дождь 10/10 90 м
[Cb cap]
+3.7 +2.9 95 -0 -0 тепло 992.8 980.2
03 15.12 ЮЗ 3 20 км в посл. час ливневой дождь 9/9 90 м
[Cb cap]
+3.3 +2.5 94 -1 -1 по сезону 993.6 981.0 4
04 15.12 ЮЗ 7 15 км слабый ливневой дождь 9/9 150 м
[Cb cap]
+3.5 +2.1 91 -3 -3 тепло 994.6 981.9
05 15.12 ЮЗ 4-7
{10}
45 км в посл. час ливневой дождь 4/1 300 м
[Cu Sc Ac trans]
+2.3 +1.2 92 -3 -3 по сезону 995.2 982.5
06 15.12 Ю 5 45 км {ливн. осадки} 3/3 1000 м
[Sc]
+1.8 +0.3 90 -4 -4 по сезону 996.3 983.5 +1.7 +4.5 0.1
07 15.12 ЮЗ 6-10
{12}
50 км слабый дождь 9/9 750 м
[Sc]
+2.5 +1.0 90 -4 -4 по сезону 997.0 984.3
08 15.12 Ю 5-10
{10}
30 км в посл. час ливневой дождь 9/9 360 м
[Cu Sc]
+2.9 +1.3 89 -3 -3 по сезону 997.3 984.6
09 15.12 Ю 4 40 км слабый дождь 9/9 450 м
[Cu Sc]
+3.3 +1.5 88 -1 -1 по сезону 997.6 984.9 0.1
10 15.12 Ю 4-10
{13}
7000 м ливневой дождь со снегом 10/10 300 м
[Cb cap]
+1.5 +0.5 93 -4 -4 по сезону 997.9 985.1
11 15.12 В 2-6
{7}
10 км слабый дождь {ливн. осадки} 10/10 210 м
[Sc]
+1.1 +0.2 94 -3 -3 по сезону 997.5 984.7
12 15.12 ЮЗ 1 4600 м дождь {ливн. осадки} 10/10 150 м
[Sc]
+2.0 +1.2 94 0 0 по сезону 997.2 984.4 4
13 15.12 СВ 2-2
{3}
8000 м слабый дождь 10/9 120 м
[Sc]
+2.4 +1.6 94 -1 -1 тепло 997.1 984.4
14 15.12 ЮЗ 2-5
{5}
18 км слабый дождь {снег} 9/9 180 м
[Sc]
+2.8 +2.0 94 -1 -0 по сезону 997.4 984.7
15 15.12 З 5-7
{7}
25 км в посл. час дождь {снег} 9/9 330 м
[Cu Sc]
+3.6 +2.3 91 -2 -2 по сезону 998.5 985.8 0.8
16 15.12 З 3-5
{9}
30 км в посл. час ливневой дождь 9/9 330 м
[Cu Sc]
+3.3 +1.8 90 -1 -1 тепло 999.1 986.4
17 15.12 Ю 2-4
{5}
50 км 9/9 330 м
[Cu Sc]
+3.1 +1.6 90 0 0 по сезону 999.7 987.0
18 15.12 Ю 2 50 км {ливн. осадки, снег} 9/9 330 м
[Cu Sc]
+2.9 +2.2 95 -0 -0 по сезону 1000.0 987.3 +0.7 +3.7 0.0
19 15.12 СВ 1-1
{4}
45 км 5/4 30 м
[Cu Sc Ac As Ci fib]
+2.5 +1.6 94 +1 +1 тепло 1000.5 987.7
20 15.12 В 2-2
{2}
40 км 9/9 30 м
[Sc]
+1.6 +1.1 96 -2 -2 по сезону 1001.0 988.2
21 15.12 В 2-2
{4}
35 км 9/9 450 м
[Cu Sc]
+2.9 +1.5 90 -0 -0 по сезону 1001.5 988.7
22 15.12 Ю 2-4
{4}
13 км слабый дождь 10/3 300 м
[Frnb As op]
+2.6 +1.9 95 -1 -1 тепло 1002.0 989.2
23 15.12 С 1-1
{3}
12 км слабый дождь 10/9 300 м
[Cu Sc]
+2.4 +1.7 95 +1 +1 тепло 1002.6 989.8
00 16.12 СВ 1 16 км слабый дождь 10/9 240 м
[Cu Sc]
+2.5 +1.8 95 +1 +1 по сезону 1002.9 990.1 0.7
01 16.12 СВ 1-1
{3}
12 км слабый дождь 10/10 30 м
[Sc]
+2.4 +1.8 96 +1 +1 тепло 1003.3 990.5
02 16.12 СВ 1-1
{2}
17 км в посл. час дождь 10/9 180 м
[Sc]
+2.3 +1.6 95 0 0 тепло 1004.0 991.2
03 16.12 С 1-2
{3}
18 км туман на расстоянии {дождь} 9/6 180 м
[Sc Ac As]
+1.7 +1.0 95 -0 -0 по сезону 1004.6 991.7 0.0
04 16.12 СВ 1-2
{2}
10 км туман на расстоянии 9/9 1170 м
[Sc]
+1.1 +0.6 96 -1 -1 тепло 1005.4 992.5
05 16.12 С 1-1
{2}
15 км туман на расстоянии 9/9 30 м
[Sc]
+1.5 +0.7 94 -0 -0 тепло 1006.2 993.3
06 16.12 С 2 25 км {дождь} 9/9 1000 м
[Sc]
+2.2 +0.5 89 -1 -1 по сезону 1007.0 994.1 +1.0 +3.2
07 16.12 З 2-3
{4}
25 км 9/9 1170 м
[Sc]
+1.8 +0.7 92 -2 -2 тепло 1007.7 994.8
08 16.12 З 4-6
{7}
25 км 9/9 330 м
[Cu Sc]
+2.0 +0.6 90 -3 -3 по сезону 1008.9 996.0
09 16.12 З 4 25 км в посл. час дождь 9/9 570 м
[Cu Sc]
+2.7 +1.1 89 -2 -2 по сезону 1009.8 996.9 0.0
10 16.12 З 6-7
{7}
18 км в посл. час дождь 9/9 540 м
[Sc]
+3.2 +1.2 87 -3 -2 по сезону 1010.8 997.9
11 16.12 З 4-5
{8}
12 км в посл. час дождь 9/9 420 м
[Cu Sc]
+3.5 +1.8 89 -1 -1 по сезону 1011.3 998.4
12 16.12 ЮЗ 4 18 км {дождь} 9/8 540 м
[Cu Sc Ac trans]
+4.4 +1.5 81 0 0 по сезону 1011.7 998.9 0.0
13 16.12 З 5-7
{8}
25 км 8/6 540 м
[Cu Sc Ac trans Ci fib]
+4.7 +1.1 77 0 0 тепло 1012.1 999.3
14 16.12 З 5-6
{8}
25 км в посл. час ливневой дождь 9/9 660 м
[Cu Sc]
+4.7 +1.0 77 0 0 по сезону 1012.5 999.7
15 16.12 З 5 22 км в посл. час ливневой дождь 8/8 330 м
[Cu Sc]
+4.3 +0.8 78 -1 -1 по сезону 1013.6 1000.7 0.0
16 16.12 ЮЗ 4-5
{7}
25 км в посл. час ливневой дождь 9/9 240 м
[Cu Sc]
+3.2 +1.6 89 -2 -2 тепло 1014.3 1001.4
17 16.12 З 5-8
{8}
10 км слабый ливневой дождь 9/9 150 м
[Cu Sc]
+3.3 +1.1 85 -2 -2 по сезону 1015.1 1002.2
18 16.12 ЮЗ 4 25 км в посл. час ливневой дождь 8/8 180 м
[Cu Sc]
+2.9 +1.4 90 -2 -2 по сезону 1015.8 1002.8 +1.7 +5.2 0.2
19 16.12 Ю 3-5
{6}
30 км 6/6 800 м
[Sc]
+2.5 +0.8 89 -2 -2 тепло 1016.3 1003.3
20 16.12 ЮЗ 3-6
{6}
30 км 8/8 870 м
[Sc]
+2.4 +0.5 87 -2 -2 по сезону 1017.1 1004.1
21 16.12 ЮЗ 4-6
{6}
30 км в посл. час ливневой дождь 8/8 600 м
[Sc]
+2.5 +0.6 87 -2 -2 по сезону 1017.5 1004.5 0.0
22 16.12 ЮЗ 3-5
{5}
35 км 8/8 700 м
[Sc]
+2.6 +0.7 87 -2 -2 тепло 1017.9 1004.9
23 16.12 ЮЗ 3-4
{5}
35 км в посл. час дождь 8/8 750 м
[Sc]
+3.2 +0.2 81 -1 -1 по сезону 1018.4 1005.4

 

Местоположение метеостанции Frankfurt (Германия): широта 50.05 долгота 8.60 высота над уровнем моря 112 м.

В архиве по умолчанию представлена погода в Frankfurt за последнюю неделю. Архивные данные за месяц целиком и за предыдущие месяцы, начиная с января 2011 года, Вы можете получить, выбрав интересующий диапазон дат из раскрывающегося списка и нажав кнопку "Ввод!".

Внимание! Время в таблицах - всемирное. Для получения местного времени необходимо прибавить поправку, которая в Frankfurt равна 1 ч.

Смотрите также архив погоды в соседних городах и на ближайших метеорологических станциях:

Погода в Offenbach Wetterpark (Германия) (13 км)
Погода в Kleiner Feldberg (Германия) (22 км)
Погода в Geisenheim (Германия) (47 км)
Погода в Michelstadt (Германия) (51 км)
Погода в Neuhuetten / Spessart (Германия) (59 км)
Погода в Mannheim (Германия) (59 км)
Погода в Giessen (Германия) (59 км)
Погода в Hoherodskopf-Vogelsberg (Германия) (68 км)
Погода в Koblenz Falckenstein-Kaserne (Германия) (81 км)
Погода в Weinbiet (Германия) (82 км)

Пояснения к столбцам:

Ветер - указаны скорость ветра в м/с - средняя за 10 мин, порывы в срок и между сроками (в фигурных скобках) и направление, откуда дует ветер: С - северный, СВ - северо-восточный, В - восточный, ЮВ - юго-восточный, Ю - южный, ЮЗ - юго-западный, З - западный, СЗ - северо-западный.
Видимость - горизонтальная дальность видимости в метрах или километрах. При видимости от 1 до 10 км при отсутствии осадков обычно наблюдается дымка, при ухудшении видимости до 1 км и менее - туман. В сухую погоду видимость может ухудшаться дымом, пылью или мглою.
Явления - указаны атмосферные явления, наблюдавшиеся в срок или в последний час перед сроком; фигурными скобками обозначены явления, наблюдавшиеся между сроками (за 1-3 часа до срока); квадратными скобками обозначены град или гололедные отложения с указанием их диаметра в мм.
Облачность - указаны через наклонную черту общая и нижняя облачность в баллах и высота нижней границы облаков в метрах; квадратными скобками обозначены формы облаков: Ci - перистые, Cs - перисто-слоистые, Cc - перисто-кучевые, Ac - высококучевые, As - высокослоистые, Sc - слоисто-кучевые, Ns - слоисто-дождевые, Cu - кучевые, Cb - кучево-дождевые. Подробнее классификацию облаков см. в Атласе облаков (PDF).
T - Температура воздуха - температура, измеренная на высоте 2 м над землей.
Td - Температура точки росы - температура, при понижении до которой содержащийся в воздухе водяной пар достигнет насыщения.
f - Относительная влажность воздуха - влажноcть воздуха, измеренная на высоте 2 м над землей.
Te - Эффективная температура - температура, которую ощущает одетый по сезону человек в тени. Характеристика душности погоды. При расчете учитывается влияние влажности воздуха и скорости ветра на теплоощущения человека.
Tes - Эффективная температура на солнце - температура, которую ощущает человек, с поправкой на солнечный нагрев. Характеристика знойности погоды. Зависит от высоты солнца над горизонтом, облачности и скорости ветра. Ночью, в пасмурную погоду, а также при ветре 12 м/с и более поправка равна нулю.
P - Атмосферное давление - приведенное к уровню моря атмосферное давление.
Po - Атмосферное давление - измеренное на уровне метеостанции атмосферное давление.
Tmin - Минимальная температура - минимум температуры воздуха на высоте 2 м над землей.
Tmax - Максимальная температура - максимум температуры воздуха на высоте 2 м над землей.
R - Количество осадков - Количество выпавших осадков за период времени, мм. При наведении курсора мыши на число - период времени, за который выпало указанное количество осадков.
R24 - Количество осадков - Количество выпавших осадков за 24 часа, мм.
S - Снежный покров - Высота снежного покрова, см. При наведении курсора мыши на число - состояние снежного покрова и степень покрытия местности в баллах.